Tracking 29892 objects as of 21-Nov-2024
HD Live streaming from Space Station
objects crossing your sky now

IRIDIUM 33 DEB

Track IRIDIUM 33 DEB now!
10-day predictions


NORAD ID: 38236
Int'l Code: 1997-051ZL
Perigee: 615.3 km
Apogee: 670.4 km
Inclination: 86.3 °
Period: 97.4 minutes
Semi major axis: 7013 km
RCS: 0.0004 m2 (small)
Launch date: September 14, 1997
Source: United States (US)
Launch site: TYURATAM MISSILE AND SPACE COMPLEX (TTMTR)

Note: This is SATELLITE DEBRIS
Your satellite tracking list
Your tracking list is empty




NASA's NSSDC Master Catalog

Two Line Element Set (TLE):
1 38236U 97051ZL  24314.80182453  .00066806  00000-0  90714-2 0  9998
2 38236  86.2502 149.3395 0039283 100.3479 260.2172 14.77966445558371
Source of the keplerian elements: AFSPC